Location: Maiden
(35.5760°N, 81.2120°W)
Time: 02:41:23
(UTC-04:00)

A-11 Canister half - Pass Details

Date: 06 August 2020
Orbit: 1527 x 1682 km, 47.3° (Epoch: 25 September)

Event Time Altitude Azimuth Distance (km) Brightness Sun altitude
Rises 16:11:40 0° 272° (W) 4,930 12.3 49.4°
Reaches altitude 10° 16:15:05 10° 279° (W) 3,944 12.0 48.8°
Maximum altitude 16:24:42 45° 350° (N) 2,163 10.3 46.9°
Drops below altitude 10° 16:34:10 10° 61° (ENE) 3,887 10.8 45.0°
Sets 16:37:31 0° 68° (ENE) 4,854 11.2 44.4°
